This is the latest recevied weather packets stored in our database for station/object KC3LDA. If no packets are shown the sender has not sent any weather packets the latest 10 day(s).
| Time | Temp. | Humidity | Pressure | Rain* | Wind** | Luminosity | Snow |
|---|---|---|---|---|---|---|---|
| 1777169069 | 5.56° C | 99% | 1015.2 hPa | 4.32 mm | - | 0 W/m² | - |
| 1777168764 | 5° C | 99% | 1015.4 hPa | 3.05 mm | - | 0 W/m² | - |
| 1777168461 | 5° C | 99% | 1015.1 hPa | 3.05 mm | - | 0 W/m² | - |
| 1777168158 | 5° C | 99% | 1015.1 hPa | 3.05 mm | - | 0 W/m² | - |
| 1777167856 | 5° C | 99% | 1014.8 hPa | 4.83 mm | - | 0 W/m² | - |
| 1777167551 | 5° C | 99% | 1015.1 hPa | 4.32 mm | - | 0 W/m² | - |
| 1777167246 | 5° C | 99% | 1015 hPa | 4.32 mm | - | 0 W/m² | - |
| 1777166942 | 5° C | 99% | 1014.7 hPa | 4.32 mm | - | 0 W/m² | - |
| 1777166642 | 5° C | 99% | 1014.7 hPa | 4.83 mm | - | 0 W/m² | - |
| 1777166338 | 5° C | 99% | 1014.7 hPa | 4.83 mm | - | 0 W/m² | - |
| 1777166034 | 5° C | 99% | 1014.4 hPa | 5.33 mm | - | 0 W/m² | - |
| 1777165733 | 5° C | 99% | 1014.8 hPa | 6.1 mm | - | 0 W/m² | - |
| 1777165428 | 5° C | 99% | 1014.6 hPa | 3.56 mm | - | 0 W/m² | - |
| 1777165125 | 5° C | 99% | 1014.4 hPa | 3.56 mm | - | 0 W/m² | - |
| 1777164819 | 5° C | 99% | 1014.2 hPa | 4.32 mm | - | 0 W/m² | - |
| 1777164518 | 5° C | 99% | 1014 hPa | 4.32 mm | - | 0 W/m² | - |
| 1777164213 | 5° C | 99% | 1014 hPa | 4.32 mm | - | 0 W/m² | - |
| 1777163908 | 5° C | 99% | 1014 hPa | 4.32 mm | - | 0 W/m² | - |
| 1777163607 | 5° C | 99% | 1013.9 hPa | 4.32 mm | - | 0 W/m² | - |
| 1777163304 | 5° C | 99% | 1014 hPa | 3.56 mm | - | 0 W/m² | - |
| 1777163000 | 5° C | 99% | 1013.8 hPa | 3.05 mm | - | 0 W/m² | - |
| 1777162695 | 5° C | 99% | 1014 hPa | 3.05 mm | - | 0 W/m² | - |
| 1777162389 | 5° C | 99% | 1014.3 hPa | 3.05 mm | - | 0 W/m² | - |
| 1777162089 | 5° C | 99% | 1013.8 hPa | 4.32 mm | - | 0 W/m² | - |
| 1777161785 | 5° C | 99% | 1013.7 hPa | 3.05 mm | - | 0 W/m² | - |
* Rain latest hour (hover to see other rain measurements)
** Current wind speed in m/s (hover to see current wind gust speed)